Weather History for Cavalier, ND

Change the Weather History Date:

Tuesday, November 15, 2011

  Actual Average (KGAF) Record (KGAF)
Temperature  
Mean Temperature 28 °F -  
Max Temperature 32 °F 36 °F 62 °F (1953)
Min Temperature 23 °F 19 °F 0 °F (1984)
Degree Days  
Heating Degree Days 38    
Moisture  
Dew Point 22 °F    
Average Humidity 78    
Maximum Humidity 93    
Minimum Humidity 64    
Precipitation  
Precipitation 0.08 in - - ()
Sea Level Pressure  
Sea Level Pressure 29.60 in    
Wind  
Wind Speed 8 mph (WNW)    
Max Wind Speed 22 mph    
Max Gust Speed 32 mph    
Visibility 9 miles    
Events Rain , Snow    
Averages and records for this station are not official NWS values.
T = Trace of Precipitation, MM = Missing Value Source: NWS Daily Summary

Daily Weather History Graph

Daily Weather History Graph

Search for Another Location

Airport:

Trip Planner

Search our weather history database for the weather conditions in past years. The results will help you decide how hot, cold, wet, or windy it might be!

Date:

Astronomy

Nov. 15, 2011 Rise Set
Actual Time 7:39 AM CST 4:50 PM CST
Civil Twilight 7:04 AM CST 5:25 PM CST
Nautical Twilight 6:26 AM CST 6:03 PM CST
Astronomical Twilight 5:49 AM CST 6:40 PM CST
Moon 8:59 PM CST (11/15) 11:42 AM CST (11/15)
Length of Visible Light 10h 20m
Length of Day
9h 11m
Waning Gibbous, 79% of the Moon is Illuminated
Nov 15
Waning Gibbous
Nov 18
Last Quarter
Nov 25
New
Dec 2
First Quarter
Dec 10
Full

Hourly Weather History & Observations

Time (CST) Temp. Windchill Dew Point Humidity Pressure Visibility Wind Dir Wind Speed Gust Speed Precip Events Conditions
12:15 AM 28.4 °F 20.4 °F 23.0 °F 80% 29.46 in 10.0 mi West 8.1 mph - N/A   Clear
12:55 AM 26.6 °F 20.0 °F 21.2 °F 80% 29.47 in 10.0 mi WSW 5.8 mph - N/A   Clear
1:15 AM 26.6 °F 18.2 °F 21.2 °F 80% 29.47 in 10.0 mi WSW 8.1 mph - N/A   Clear
1:35 AM 26.6 °F 19.1 °F 21.2 °F 80% 29.48 in 10.0 mi WSW 6.9 mph - N/A   Clear
1:55 AM 26.6 °F 20.0 °F 21.2 °F 80% 29.48 in 10.0 mi SW 5.8 mph - N/A   Clear
2:15 AM 24.8 °F 16.1 °F 21.2 °F 86% 29.49 in 10.0 mi SW 8.1 mph - N/A   Clear
2:35 AM 24.8 °F 16.1 °F 21.2 °F 86% 29.49 in 10.0 mi SW 8.1 mph - N/A   Clear
2:55 AM 24.8 °F 16.9 °F 21.2 °F 86% 29.49 in 10.0 mi WSW 6.9 mph - N/A   Clear
3:15 AM 24.8 °F 20.5 °F 19.4 °F 80% 29.49 in 10.0 mi WSW 3.5 mph - N/A   Clear
3:35 AM 24.8 °F 19.1 °F 19.4 °F 80% 29.49 in 10.0 mi SW 4.6 mph - N/A   Clear
3:55 AM 23.0 °F 17.0 °F 19.4 °F 86% 29.48 in 10.0 mi SW 4.6 mph - N/A   Clear
4:15 AM 23.0 °F 17.0 °F 17.6 °F 80% 29.48 in 10.0 mi SW 4.6 mph - N/A   Clear
4:35 AM 23.0 °F 17.0 °F 19.4 °F 86% 29.49 in 10.0 mi WSW 4.6 mph - N/A   Clear
4:55 AM 23.0 °F 15.8 °F 19.4 °F 86% 29.49 in 10.0 mi SW 5.8 mph - N/A   Clear
5:15 AM 23.0 °F 14.7 °F 19.4 °F 86% 29.50 in 10.0 mi WSW 6.9 mph - N/A   Clear
5:35 AM 23.0 °F - 19.4 °F 86% 29.50 in 10.0 mi Calm Calm - N/A   Clear
7:35 AM 24.8 °F 16.9 °F 21.2 °F 86% 29.51 in 10.0 mi West 6.9 mph - N/A   Clear
7:55 AM 24.8 °F 16.9 °F 21.2 °F 86% 29.51 in 10.0 mi West 6.9 mph - N/A   Clear
8:15 AM 24.8 °F 16.9 °F 21.2 °F 86% 29.52 in 10.0 mi West 6.9 mph - N/A   Clear
8:35 AM 26.6 °F 22.6 °F 23.0 °F 86% 29.53 in 10.0 mi West 3.5 mph - N/A   Clear
8:55 AM 26.6 °F 21.2 °F 23.0 °F 86% 29.54 in 10.0 mi West 4.6 mph - N/A   Partly Cloudy
9:15 AM 28.4 °F 23.3 °F 23.0 °F 80% 29.54 in 10.0 mi West 4.6 mph - N/A   Partly Cloudy
9:35 AM 28.4 °F - 24.8 °F 86% 29.54 in 10.0 mi Calm Calm - N/A   Clear
9:55 AM 28.4 °F 24.6 °F 23.0 °F 80% 29.54 in 10.0 mi NNW 3.5 mph - N/A   Partly Cloudy
10:15 AM 30.2 °F 25.4 °F 24.8 °F 80% 29.55 in 10.0 mi WNW 4.6 mph - N/A   Mostly Cloudy
10:35 AM 32.0 °F 26.4 °F 24.8 °F 75% 29.55 in 10.0 mi NW 5.8 mph - N/A   Overcast
10:55 AM 32.0 °F 26.4 °F 24.8 °F 75% 29.55 in 4.0 mi NW 5.8 mph - N/A   Overcast
11:15 AM 30.2 °F 22.6 °F 26.6 °F 86% 29.56 in 1.2 mi NNW 8.1 mph - N/A Snow Light Snow
11:35 AM 30.2 °F 21.3 °F 26.6 °F 86% 29.56 in 2.0 mi North 10.4 mph - 0.01 in Snow Light Snow
11:55 AM 32.0 °F 23.6 °F 26.6 °F 80% 29.56 in 2.5 mi North 10.4 mph - 0.01 in   Overcast
12:15 PM 32.0 °F 23.6 °F 26.6 °F 80% 29.56 in 1.8 mi North 10.4 mph 16.1 mph N/A Rain Light Rain
12:35 PM 32.0 °F 22.1 °F 28.4 °F 87% 29.56 in 0.8 mi NNW 13.8 mph 20.7 mph 0.01 in Snow Light Snow
12:55 PM 30.2 °F 19.8 °F 28.4 °F 93% 29.57 in 0.2 mi NNW 13.8 mph - 0.05 in Snow Heavy Snow
1:15 PM 32.0 °F 22.5 °F 28.4 °F 87% 29.58 in 1.0 mi NNW 12.7 mph - 0.02 in Snow Light Snow
1:35 PM 32.0 °F 23.6 °F 26.6 °F 80% 29.59 in 10.0 mi NNW 10.4 mph 18.4 mph 0.02 in Rain Light Rain
1:55 PM 32.0 °F 21.2 °F 24.8 °F 75% 29.60 in 10.0 mi NNW 16.1 mph 19.6 mph 0.02 in   Mostly Cloudy
2:15 PM 32.0 °F 21.6 °F 23.0 °F 69% 29.61 in 10.0 mi NW 15.0 mph 21.9 mph N/A   Clear
2:35 PM 32.0 °F 20.5 °F 24.8 °F 75% 29.62 in 10.0 mi NW 18.4 mph 28.8 mph N/A   Clear
2:55 PM 32.0 °F 22.1 °F 24.8 °F 75% 29.63 in 10.0 mi NW 13.8 mph 21.9 mph N/A   Clear
3:15 PM 32.0 °F 22.5 °F 24.8 °F 75% 29.65 in 9.0 mi NW 12.7 mph 18.4 mph N/A   Mostly Cloudy
3:35 PM 32.0 °F 20.5 °F 23.0 °F 69% 29.66 in 10.0 mi WNW 18.4 mph 26.5 mph N/A   Overcast
3:55 PM 32.0 °F 19.8 °F 23.0 °F 69% 29.68 in 10.0 mi WNW 20.7 mph 27.6 mph N/A   Overcast
4:15 PM 30.2 °F 17.8 °F 21.2 °F 69% 29.69 in 10.0 mi NW 19.6 mph 28.8 mph N/A   Overcast
4:35 PM 30.2 °F 17.1 °F 19.4 °F 64% 29.70 in 10.0 mi WNW 21.9 mph 25.3 mph N/A   Overcast
4:55 PM 28.4 °F 15.8 °F 19.4 °F 69% 29.71 in 10.0 mi WNW 18.4 mph 32.2 mph N/A   Overcast
5:15 PM 28.4 °F 18.5 °F 19.4 °F 69% 29.72 in 10.0 mi WNW 11.5 mph 21.9 mph N/A   Overcast
5:35 PM 28.4 °F 18.0 °F 19.4 °F 69% 29.73 in 10.0 mi WNW 12.7 mph 17.3 mph N/A   Overcast
5:55 PM 28.4 °F 17.5 °F 17.6 °F 64% 29.74 in 10.0 mi WNW 13.8 mph 24.2 mph N/A   Overcast
6:15 PM 28.4 °F 16.6 °F 17.6 °F 64% 29.75 in 10.0 mi NW 16.1 mph - N/A   Mostly Cloudy
6:35 PM 26.6 °F 12.7 °F 15.8 °F 64% 29.76 in 10.0 mi NW 20.7 mph 26.5 mph N/A   Clear
6:55 PM 26.6 °F 16.2 °F 15.8 °F 64% 29.77 in 10.0 mi WNW 11.5 mph 21.9 mph N/A   Clear
7:15 PM 26.6 °F 15.7 °F 15.8 °F 64% 29.78 in 10.0 mi WNW 12.7 mph 18.4 mph N/A   Clear
7:35 PM 24.8 °F 14.0 °F 15.8 °F 69% 29.78 in 10.0 mi WNW 11.5 mph - N/A   Clear
7:55 PM 24.8 °F 16.1 °F 15.8 °F 69% 29.79 in 10.0 mi West 8.1 mph - N/A   Clear
8:15 PM 23.0 °F 13.9 °F 15.8 °F 74% 29.79 in 10.0 mi WNW 8.1 mph - N/A   Clear
8:35 PM 23.0 °F 13.9 °F 15.8 °F 74% 29.80 in 10.0 mi West 8.1 mph - N/A   Clear
8:55 PM 23.0 °F 13.9 °F 15.8 °F 74% 29.80 in 10.0 mi WNW 8.1 mph - N/A   Scattered Clouds
9:15 PM 24.8 °F 17.9 °F 17.6 °F 74% 29.81 in 10.0 mi West 5.8 mph - N/A   Mostly Cloudy
9:35 PM 23.0 °F 14.7 °F 17.6 °F 80% 29.82 in 10.0 mi West 6.9 mph - N/A   Mostly Cloudy
9:55 PM 24.8 °F 16.1 °F 17.6 °F 74% 29.82 in 10.0 mi West 8.1 mph - N/A   Overcast
10:15 PM 24.8 °F 16.1 °F 17.6 °F 74% 29.82 in 10.0 mi WNW 8.1 mph - N/A   Overcast
10:35 PM 24.8 °F 16.9 °F 19.4 °F 80% 29.82 in 10.0 mi WNW 6.9 mph - N/A   Overcast
10:55 PM 24.8 °F 16.1 °F 19.4 °F 80% 29.82 in 10.0 mi West 8.1 mph - N/A   Overcast
11:15 PM 24.8 °F 16.1 °F 19.4 °F 80% 29.82 in 10.0 mi West 8.1 mph - N/A   Overcast
11:35 PM 24.8 °F 16.1 °F 19.4 °F 80% 29.83 in 10.0 mi West 8.1 mph - N/A   Overcast
11:55 PM 26.6 °F 15.7 °F 17.6 °F 69% 29.84 in 10.0 mi West 12.7 mph - N/A   Overcast